Wetterdaten: aktuell Freitag, 20.09.2019 05:20
Datum Zeit Temp. A. 5 cm .Temp Feuchte A. BlattFeu 1 Luftdruck Regen Wind UV Solar Windchill Windben
20.09.2019 05:20 5,3 C 2,2 C 86 % 15 lf 1028,8 hPa 0,0 l/m 2,7 km/h (1 Bft) 0,0 UV-I 0 W/m 5,3 C 4,8 km/h (1 Bft)
20.09.2019 05:15 5,3 C 2,2 C 85 % 15 lf 1028,8 hPa 0,0 l/m 1,9 km/h (1 Bft) 0,0 UV-I 0 W/m 5,3 C 4,8 km/h (1 Bft)
20.09.2019 05:10 5,4 C 2,2 C 85 % 15 lf 1028,8 hPa 0,0 l/m 2,0 km/h (1 Bft) 0,0 UV-I 0 W/m 5,4 C 4,8 km/h (1 Bft)
20.09.2019 05:05 5,4 C 2,2 C 85 % 15 lf 1028,8 hPa 0,0 l/m 2,3 km/h (1 Bft) 0,0 UV-I 0 W/m 5,4 C 6,4 km/h (2 Bft)
20.09.2019 05:00 5,4 C 2,2 C 85 % 15 lf 1028,9 hPa 0,0 l/m 3,1 km/h (1 Bft) 0,0 UV-I 0 W/m 5,4 C 4,8 km/h (1 Bft)
20.09.2019 04:55 5,4 C 2,2 C 85 % 15 lf 1029,0 hPa 0,0 l/m 2,1 km/h (1 Bft) 0,0 UV-I 0 W/m 5,4 C 4,8 km/h (1 Bft)
20.09.2019 04:50 5,4 C 2,2 C 85 % 15 lf 1029,0 hPa 0,0 l/m 3,0 km/h (1 Bft) 0,0 UV-I 0 W/m 5,4 C 4,8 km/h (1 Bft)
20.09.2019 04:45 5,4 C 2,2 C 84 % 15 lf 1029,0 hPa 0,0 l/m 3,1 km/h (1 Bft) 0,0 UV-I 0 W/m 5,4 C 4,8 km/h (1 Bft)
20.09.2019 04:40 5,6 C 2,2 C 84 % 15 lf 1029,0 hPa 0,0 l/m 2,8 km/h (1 Bft) 0,0 UV-I 0 W/m 5,6 C 4,8 km/h (1 Bft)
20.09.2019 04:35 5,6 C 2,2 C 84 % 15 lf 1029,0 hPa 0,0 l/m 0,6 km/h (0 Bft) 0,0 UV-I 0 W/m 5,6 C 4,8 km/h (1 Bft)
20.09.2019 04:30 5,7 C 2,2 C 84 % 15 lf 1029,0 hPa 0,0 l/m 0,0 km/h (0 Bft) 0,0 UV-I 0 W/m 5,7 C 0,0 km/h (0 Bft)
20.09.2019 04:25 5,7 C 2,2 C 83 % 15 lf 1029,1 hPa 0,0 l/m 0,0 km/h (0 Bft) 0,0 UV-I 0 W/m 5,7 C 0,0 km/h (0 Bft)
20.09.2019 04:20 5,8 C 1,7 C 83 % 15 lf 1029,1 hPa 0,0 l/m 0,0 km/h (0 Bft) 0,0 UV-I 0 W/m 5,8 C 0,0 km/h (0 Bft)
20.09.2019 04:15 5,8 C 1,7 C 83 % 15 lf 1029,2 hPa 0,0 l/m 0,0 km/h (0 Bft) 0,0 UV-I 0 W/m 5,8 C 0,0 km/h (0 Bft)
20.09.2019 04:10 5,8 C 1,7 C 82 % 15 lf 1029,2 hPa 0,0 l/m 0,0 km/h (0 Bft) 0,0 UV-I 0 W/m 5,8 C 0,0 km/h (0 Bft)
20.09.2019 04:05 5,9 C 2,2 C 82 % 15 lf 1029,3 hPa 0,0 l/m 0,0 km/h (0 Bft) 0,0 UV-I 0 W/m 5,9 C 0,0 km/h (0 Bft)
20.09.2019 04:00 6,0 C 2,2 C 81 % 15 lf 1029,3 hPa 0,0 l/m 0,0 km/h (0 Bft) 0,0 UV-I 0 W/m 6,0 C 0,0 km/h (0 Bft)
20.09.2019 03:55 6,1 C 2,2 C 81 % 15 lf 1029,3 hPa 0,0 l/m 0,0 km/h (0 Bft) 0,0 UV-I 0 W/m 6,1 C 0,0 km/h (0 Bft)
20.09.2019 03:50 6,2 C 2,2 C 81 % 15 lf 1029,2 hPa 0,0 l/m 0,0 km/h (0 Bft) 0,0 UV-I 0 W/m 6,2 C 0,0 km/h (0 Bft)
20.09.2019 03:45 6,3 C 2,2 C 81 % 15 lf 1029,3 hPa 0,0 l/m 0,0 km/h (0 Bft) 0,0 UV-I 0 W/m 6,3 C 0,0 km/h (0 Bft)
20.09.2019 03:40 6,4 C 2,2 C 82 % 14 lf 1029,3 hPa 0,0 l/m 0,0 km/h (0 Bft) 0,0 UV-I 0 W/m 6,4 C 0,0 km/h (0 Bft)
20.09.2019 03:35 6,4 C 2,2 C 83 % 14 lf 1029,3 hPa 0,0 l/m 0,0 km/h (0 Bft) 0,0 UV-I 0 W/m 6,4 C 0,0 km/h (0 Bft)
20.09.2019 03:30 6,3 C 2,8 C 83 % 14 lf 1029,4 hPa 0,0 l/m 0,0 km/h (0 Bft) 0,0 UV-I 0 W/m 6,3 C 0,0 km/h (0 Bft)
20.09.2019 03:25 6,1 C 2,8 C 83 % 14 lf 1029,3 hPa 0,0 l/m 0,0 km/h (0 Bft) 0,0 UV-I 0 W/m 6,1 C 0,0 km/h (0 Bft)
20.09.2019 03:20 6,1 C 2,8 C 83 % 15 lf 1029,3 hPa 0,0 l/m 0,0 km/h (0 Bft) 0,0 UV-I 0 W/m 6,1 C 0,0 km/h (0 Bft)
20.09.2019 03:15 6,0 C 2,8 C 83 % 15 lf 1029,4 hPa 0,0 l/m 0,0 km/h (0 Bft) 0,0 UV-I 0 W/m 6,0 C 0,0 km/h (0 Bft)
20.09.2019 03:10 6,0 C 2,2 C 83 % 15 lf 1029,4 hPa 0,0 l/m 0,0 km/h (0 Bft) 0,0 UV-I 0 W/m 6,0 C 0,0 km/h (0 Bft)
20.09.2019 03:05 6,1 C 2,2 C 83 % 14 lf 1029,5 hPa 0,0 l/m 0,0 km/h (0 Bft) 0,0 UV-I 0 W/m 6,1 C 0,0 km/h (0 Bft)
20.09.2019 03:00 6,1 C 2,2 C 83 % 14 lf 1029,6 hPa 0,0 l/m 0,0 km/h (0 Bft) 0,0 UV-I 0 W/m 6,1 C 0,0 km/h (0 Bft)
20.09.2019 02:55 6,1 C 2,8 C 83 % 14 lf 1029,6 hPa 0,0 l/m 0,0 km/h (0 Bft) 0,0 UV-I 0 W/m 6,1 C 0,0 km/h (0 Bft)
20.09.2019 02:50 6,1 C 2,8 C 83 % 14 lf 1029,6 hPa 0,0 l/m 0,0 km/h (0 Bft) 0,0 UV-I 0 W/m 6,1 C 0,0 km/h (0 Bft)
20.09.2019 02:45 6,2 C 2,2 C 83 % 13 lf 1029,6 hPa 0,0 l/m 0,0 km/h (0 Bft) 0,0 UV-I 0 W/m 6,2 C 0,0 km/h (0 Bft)
20.09.2019 02:40 6,2 C 2,8 C 82 % 13 lf 1029,6 hPa 0,0 l/m 0,0 km/h (0 Bft) 0,0 UV-I 0 W/m 6,2 C 0,0 km/h (0 Bft)
20.09.2019 02:35 6,2 C 2,8 C 82 % 13 lf 1029,6 hPa 0,0 l/m 0,0 km/h (0 Bft) 0,0 UV-I 0 W/m 6,2 C 0,0 km/h (0 Bft)
20.09.2019 02:30 6,2 C 2,8 C 82 % 13 lf 1029,6 hPa 0,0 l/m 0,0 km/h (0 Bft) 0,0 UV-I 0 W/m 6,2 C 0,0 km/h (0 Bft)
20.09.2019 02:25 6,2 C 2,8 C 82 % 12 lf 1029,6 hPa 0,0 l/m 0,0 km/h (0 Bft) 0,0 UV-I 0 W/m 6,2 C 0,0 km/h (0 Bft)
20.09.2019 02:20 6,3 C 2,8 C 81 % 12 lf 1029,7 hPa 0,0 l/m 0,0 km/h (0 Bft) 0,0 UV-I 0 W/m 6,3 C 0,0 km/h (0 Bft)
20.09.2019 02:15 6,4 C 2,8 C 81 % 11 lf 1029,7 hPa 0,0 l/m 0,0 km/h (0 Bft) 0,0 UV-I 0 W/m 6,4 C 0,0 km/h (0 Bft)
20.09.2019 02:10 6,4 C 2,8 C 81 % 11 lf 1029,8 hPa 0,0 l/m 0,0 km/h (0 Bft) 0,0 UV-I 0 W/m 6,4 C 0,0 km/h (0 Bft)
20.09.2019 02:05 6,4 C 2,8 C 81 % 11 lf 1029,8 hPa 0,0 l/m 0,0 km/h (0 Bft) 0,0 UV-I 0 W/m 6,4 C 0,0 km/h (0 Bft)
20.09.2019 02:00 6,5 C 2,8 C 81 % 11 lf 1029,8 hPa 0,0 l/m 0,0 km/h (0 Bft) 0,0 UV-I 0 W/m 6,5 C 0,0 km/h (0 Bft)
20.09.2019 01:55 6,5 C 2,8 C 80 % 11 lf 1029,8 hPa 0,0 l/m 0,0 km/h (0 Bft) 0,0 UV-I 0 W/m 6,5 C 0,0 km/h (0 Bft)
20.09.2019 01:50 6,6 C 2,8 C 80 % 10 lf 1029,9 hPa 0,0 l/m 0,0 km/h (0 Bft) 0,0 UV-I 0 W/m 6,6 C 0,0 km/h (0 Bft)
20.09.2019 01:45 6,7 C 2,8 C 80 % 9 lf 1029,9 hPa 0,0 l/m 0,0 km/h (0 Bft) 0,0 UV-I 0 W/m 6,7 C 0,0 km/h (0 Bft)
20.09.2019 01:40 6,8 C 2,8 C 80 % 8 lf 1029,8 hPa 0,0 l/m 0,0 km/h (0 Bft) 0,0 UV-I 0 W/m 6,8 C 0,0 km/h (0 Bft)
20.09.2019 01:35 6,8 C 3,3 C 80 % 7 lf 1029,9 hPa 0,0 l/m 0,0 km/h (0 Bft) 0,0 UV-I 0 W/m 6,8 C 0,0 km/h (0 Bft)
20.09.2019 01:30 6,9 C 3,3 C 80 % 5 lf 1029,9 hPa 0,0 l/m 0,0 km/h (0 Bft) 0,0 UV-I 0 W/m 6,9 C 0,0 km/h (0 Bft)
20.09.2019 01:25 6,8 C 3,3 C 79 % 4 lf 1029,9 hPa 0,0 l/m 0,0 km/h (0 Bft) 0,0 UV-I 0 W/m 6,8 C 0,0 km/h (0 Bft)
20.09.2019 01:20 6,9 C 3,3 C 79 % 4 lf 1030,0 hPa 0,0 l/m 0,0 km/h (0 Bft) 0,0 UV-I 0 W/m 6,9 C 0,0 km/h (0 Bft)
20.09.2019 01:15 6,9 C 3,3 C 78 % 4 lf 1030,0 hPa 0,0 l/m 0,0 km/h (0 Bft) 0,0 UV-I 0 W/m 6,9 C 0,0 km/h (0 Bft)
20.09.2019 01:10 7,1 C 3,3 C 78 % 4 lf 1030,0 hPa 0,0 l/m 0,0 km/h (0 Bft) 0,0 UV-I 0 W/m 7,1 C 0,0 km/h (0 Bft)
20.09.2019 01:05 7,2 C 3,3 C 77 % 4 lf 1030,0 hPa 0,0 l/m 0,0 km/h (0 Bft) 0,0 UV-I 0 W/m 7,2 C 0,0 km/h (0 Bft)
20.09.2019 01:00 7,3 C 3,3 C 77 % 4 lf 1030,0 hPa 0,0 l/m 0,0 km/h (0 Bft) 0,0 UV-I 0 W/m 7,3 C 0,0 km/h (0 Bft)
20.09.2019 00:55 7,4 C 3,3 C 77 % 3 lf 1030,0 hPa 0,0 l/m 0,0 km/h (0 Bft) 0,0 UV-I 0 W/m 7,4 C 0,0 km/h (0 Bft)
20.09.2019 00:50 7,6 C 3,9 C 76 % 3 lf 1030,0 hPa 0,0 l/m 0,0 km/h (0 Bft) 0,0 UV-I 0 W/m 7,6 C 0,0 km/h (0 Bft)
20.09.2019 00:45 7,8 C 3,9 C 75 % 3 lf 1030,1 hPa 0,0 l/m 0,0 km/h (0 Bft) 0,0 UV-I 0 W/m 7,8 C 0,0 km/h (0 Bft)
20.09.2019 00:40 7,9 C 3,9 C 75 % 3 lf 1030,1 hPa 0,0 l/m 0,0 km/h (0 Bft) 0,0 UV-I 0 W/m 7,9 C 0,0 km/h (0 Bft)
20.09.2019 00:35 7,9 C 3,9 C 74 % 3 lf 1030,0 hPa 0,0 l/m 0,0 km/h (0 Bft) 0,0 UV-I 0 W/m 7,9 C 0,0 km/h (0 Bft)
20.09.2019 00:30 8,1 C 3,9 C 74 % 3 lf 1030,1 hPa 0,0 l/m 0,0 km/h (0 Bft) 0,0 UV-I 0 W/m 8,1 C 0,0 km/h (0 Bft)
20.09.2019 00:25 8,2 C 3,9 C 73 % 2 lf 1030,0 hPa 0,0 l/m 0,0 km/h (0 Bft) 0,0 UV-I 0 W/m 8,2 C 0,0 km/h (0 Bft)
20.09.2019 00:20 8,4 C 4,4 C 73 % 2 lf 1030,1 hPa 0,0 l/m 0,0 km/h (0 Bft) 0,0 UV-I 0 W/m 8,4 C 0,0 km/h (0 Bft)
20.09.2019 00:15 8,5 C 4,4 C 73 % 2 lf 1030,1 hPa 0,0 l/m 0,3 km/h (0 Bft) 0,0 UV-I 0 W/m 8,5 C 4,8 km/h (1 Bft)
20.09.2019 00:10 8,6 C 4,4 C 73 % 2 lf 1030,2 hPa 0,0 l/m 0,2 km/h (0 Bft) 0,0 UV-I 0 W/m 8,6 C 3,2 km/h (1 Bft)
20.09.2019 00:05 8,6 C 5,0 C 72 % 1 lf 1030,1 hPa 0,0 l/m 0,1 km/h (0 Bft) 0,0 UV-I 0 W/m 8,6 C 1,6 km/h (1 Bft)
20.09.2019 00:00 8,7 C 5,0 C 72 % 1 lf 1030,2 hPa 0,0 l/m 0,6 km/h (0 Bft) 0,0 UV-I 0 W/m 8,7 C 3,2 km/h (1 Bft)
_ Min-Zeit 05:15 04:10 00:00 00:00 05:05 - 00:20 - - 05:15 00:20
Minimum _ 5,3 C 1,7 C 72 % 1 lf 1028,8 hPa - 0,0 km/h (0 Bft) - - 5,3 C 0,0 km/h (0 Bft)
_ Max-Zeit 00:00 00:00 05:20 03:10 00:00 00:00 04:45 00:00 00:00 00:00 05:05
Maximum _ 8,7 C 5,0 C 86 % 15 lf 1030,2 hPa 0,0 l/m 3,1 km/h
O-NO (1 Bft)
0,0 UV-I 0 W/m 8,7 C 6,4 km/h
O-NO (2 Bft)
Durchschnitt _ 6,5 C 2,8 C 80 % 10 lf 1029,6 hPa #0,0 l/m 0,4 km/h (0 Bft) 0,0 UV-I 0 W/m 6,5 C 1,0 km/h (0 Bft)